Location: Banff
(51.1667°N, 115.5667°W)
Time: 09:06:09
(UTC+00:00)

X-37B - Visible Passes

Search period start: 27 October 2020 00:00
Search period end: 06 November 2020 00:00
Orbit: 382 x 392 km, 45.0° (Epoch: 15 October)

Date Brightness Start Highest point End Pass type
(mag) Time Alt. Az. Time Alt. Az. Time Alt. Az.
01 Nov 3.8 13:41:48 10° SSE 13:42:42 11° SSE 13:43:36 10° SE visible
03 Nov 3.3 13:19:56 10° SSW 13:21:54 15° SSE 13:23:52 10° ESE visible
04 Nov 3.5 12:22:47 10° SSE 12:23:36 11° SSE 12:24:28 10° SE visible
04 Nov 2.7 13:56:53 10° SW 13:59:30 24° S 14:02:10 10° ESE visible
05 Nov 2.8 12:59:25 14° SSW 13:01:08 20° SSE 13:03:32 10° ESE visible
